User: anonymous   Login
Location: Passau
(48.5830°N, 13.4830°E)
Time: 04:52:53
(UTC+01:00)
Language:

NOAA 18 - Orbit

View from above orbital plane
View from above orbital plane
View from above satellite
View from above satellite

Ground track
Ground track

The orbit data is extracted from the following two-line orbital elements,

1 28654U 05018A   21332.91077459  .00000109  00000-0  82892-4 0  9995
2 28654  98.9760  38.2776 0014485 174.5246 185.6086 14.12661426851663
Epoch (UTC): 28 November 2021 21:51:30
Eccentricity: 0.0014485
inclination: 98.9760°
perigee height: 840 km
apogee height: 861 km
right ascension of ascending node: 38.2776°
argument of perigee: 174.5246°
revolutions per day: 14.12661426
mean anomaly at epoch: 185.6086°
orbit number at epoch: 85166

The dashed part of the orbit path shows where the satellite is in the earth's shadow,  

DLR